#timestamp,LO_Frequency,Hit 
1500897615.4,286047005.8,N
1500897635.2,286047003.3,N
1500897655.1,286047005.8,N
1500897656.0,286047005.8,N
1500897675.8,286047004.8,N
1500897695.6,286047009.2,Y
1500897715.5,286047001.3,N
1500897735.3,286047004.7,N
1500897755.1,286047003.4,N
1500897775.9,286047005.4,N
1500897795.7,286047003.1,N
1500897815.5,286047005.1,N
1500897835.4,286047005.4,N
1500897855.1,286047005.2,N
1500897875.9,286047005.3,N
1500897895.7,286047003.6,N
1500897915.5,286047004.1,N
1500897935.4,286047002.1,N
1500897955.2,286046998.3,N
1500897975.0,286046994.9,N
1500897975.9,286046994.9,N
1500897995.8,286046992.2,N
1500898015.6,286046992.9,N
1500898035.4,286046990.2,N
1500898055.2,286046987.1,N
1500898075.1,286046988.9,N
1500898076.0,286046988.9,N
1500898095.8,286046988.8,N
1500898115.6,286046989.0,N
1500898135.5,286046993.6,N
1500898155.3,286046995.0,N
1500898175.1,286046996.8,N
1500898195.9,286047000.7,N
1500898215.7,286047004.3,N
1500898235.5,286047003.7,N
1500898255.4,286047001.8,N
1500898275.2,286047002.0,N
1500898295.0,286047002.6,N
1500898295.9,286047002.6,N
1500898315.8,286046999.7,N
1500898335.6,286047001.3,N
1500898355.4,286047002.0,N
1500898375.2,286047000.1,N
1500898395.1,286047002.6,N
1500898415.5,286047001.4,N
1500898435.4,286047007.4,N
1500898455.2,286047007.1,N
1500898475.0,286047007.2,N
1500898475.9,286047007.2,N
1500898495.8,286047008.9,N
1500898515.6,286047006.9,N
1500898535.4,286047009.0,Y
1500898555.3,286047004.8,N
1500898575.1,286047005.5,N
1500898576.0,286047005.5,N
1500898595.8,286047002.9,N
1500898615.7,286047005.3,N
1500898635.5,286047002.8,N
1500898655.3,286047002.5,N
1500898675.1,286047001.5,N
1500898695.9,286047005.6,N
1500898715.7,286047005.2,N
1500898735.5,286047007.5,N
1500898755.4,286047003.2,N
1500898775.2,286047004.2,N
1500898795.0,286047002.1,N
1500898795.9,286047002.1,N
1500898815.8,286047000.5,N
1500898835.6,286046999.9,N
1500898855.4,286047002.2,N
1500898875.3,286047004.4,N
1500898895.1,286047002.2,N
1500898896.0,286047002.2,N
1500898915.8,286047001.0,N
1500898935.7,286047000.7,N
1500898955.5,286047000.6,N
1500898975.3,286046998.6,N
1500898995.1,286046998.9,N
1500899015.9,286046998.7,N
1500899035.7,286046998.8,N
1500899055.5,286047000.7,N
1500899075.4,286047000.5,N
1500899095.2,286047001.8,N
1500899115.0,286047003.5,N
1500899115.9,286047003.5,N
1500899135.8,286047005.0,Y
1500899155.6,286047003.4,N
1500899175.4,286047003.6,N
1500899195.3,286047001.3,N
1500899215.1,286047001.9,N
1500899235.8,286047000.1,N
1500899255.7,286047000.3,N
1500899275.5,286046999.5,N
1500899295.3,286047000.4,N
1500899315.2,286047004.3,N
1500899335.9,286047004.2,N
1500899355.7,286047002.3,N
1500899375.6,286047003.6,N
1500899395.4,286047001.7,N
1500899415.2,286047001.8,N
1500899435.0,286047002.9,N
1500899435.9,286047002.9,N
1500899455.8,286047001.3,N
1500899475.6,286047000.9,N
1500899495.4,286047004.4,N
1500899515.3,286047002.5,N
1500899535.1,286047002.6,N
1500899555.8,286047001.5,N
1500899575.7,286046998.5,N
1500899595.5,286046996.8,N
1500899615.3,286046995.6,N
1500899635.2,286046997.3,N
1500899655.9,286046996.7,N
1500899675.8,286046999.6,N
1500899695.6,286047002.5,N
1500899715.5,286047000.1,N
1500899735.3,286046999.7,N
1500899755.1,286047003.1,N
1500899775.9,286047003.1,N
1500899795.7,286047000.0,N
1500899815.5,286047002.8,N
1500899835.4,286047002.1,N
1500899855.2,286046999.4,N
1500899875.0,286047002.3,N
1500899875.9,286047002.3,N
1500899895.8,286047000.4,N
1500899915.6,286046997.3,N
1500899935.4,286046997.3,N
1500899955.2,286046999.6,N
1500899975.1,286046999.3,N
1500899976.0,286046999.3,N
1500899995.8,286046998.6,N
1500900015.6,286047001.2,N
1500900035.5,286047001.0,N
1500900055.3,286047000.3,N
1500900075.1,286047001.9,N
1500900095.9,286047002.8,N
1500900115.7,286047000.0,N
1500900135.5,286047002.6,N
1500900155.4,286046999.7,N
1500900175.2,286047001.9,N
1500900195.0,286047006.0,Y
1500900195.9,286047006.0,Y
1500900215.8,286047005.7,N
1500900235.6,286047007.0,N
1500900255.4,286047007.8,N
1500900275.3,286047008.0,N
1500900295.1,286047009.1,N
1500900296.0,286047009.1,N
1500900315.8,286047007.3,N
1500900335.7,28601500900775.0,286046999.1,Y
1500900776.0,286046999.1,Y
1500900795.8,286047002.1,Y
1500900815.6,286047005.8,Y
1500900835.5,286047005.1,N
1500900855.0,286047008.6,N
1500900855.9,286047008.6,N
1500900875.8,286047007.6,N
1500900895.6,286047001.5,N
1500900915.4,286047000.9,N
1500900935.2,286047003.1,N
1500900955.1,286047007.3,N
1500900956.0,286047007.3,N
1500900975.8,286047006.0,N
1500900995.6,286047003.9,N
1500901015.5,286047001.4,N
1500901035.3,286047005.2,N
1500901055.1,286047004.3,N
1500901075.9,286047007.2,Y
1500901095.7,286047004.3,N
1500901115.5,286047004.6,N
1500901135.4,286047007.3,Y
1500901155.2,286047005.9,Y
1500901175.0,286046999.9,N
1500901175.9,286046999.9,N
1500901195.8,286047000.1,N
